sat.trackr.live / text

‹ back to catalog

STARLINK-31594

NORAD 59332 · 2024-057N

PAYLOAD ACTIVE UNKNOWN

§ Identity

Operator
Country
US
Launch date
2024-03-25
Launch site
AFETR
Launch vehicle
Mass (kg)
RCS (m²)

Purposes: comms

External: N2YO · Heavens-Above · Gunter

§ Orbital elements

Epoch: 2026-09-20T02:48:59.227488Z

Period
94.27 min
Inclination
43.0015°
Eccentricity
0.0001042
Mean motion
15.27568607 rev/d
Perigee alt
482.4 km
Apogee alt
483.8 km
Semi-major
6,861.2 km
B*
-3.1804e-5
RAAN
180.3447°
Arg perigee
264.6185°
Mean anomaly
95.4548°
Rev number
13,944

§ Raw data

STARLINK-315941 59332U 24057N   26263.11735217 -.00001137  00000+0 -31804-4 0  99992 59332  43.0015 180.3447 0001042 264.6185  95.4548 15.27568607139446

JSON: /api/v1/satellites/59332 · /tle

For live sub-satellite position, see the globe view (requires WebGL).

§ Visibility from observer

Set your observer location to see the next 7 days of passes ≥ 10°. The values pass through the URL so the page stays shareable.

No JS? Fill the form by hand. The geolocation button needs JavaScript.